This demonstration page uses our WeatherBlox Daily Observations layout. Learn more.

36.17497, -115.13722

Hourly Observations for August 25, 2018

Temp ( °F °C ) Dew Point ( °F °C ) Humidity (%) Winds ( mph kmh ) Pressure ( in mb ) Visibility ( mi km ) Precip ( " mm )
12:53 am 00:53 Clear 84 28.9 23 -5 10 10 Calm 29.79 1009 10 16.0934 0 0
1:53 am 01:53 Clear 80 26.7 29 -1.7 15 15 NE 3 6 29.79 1009 10 16.0934 0 0
2:53 am 02:53 Clear 78 25.6 31 -0.6 18 18 Calm 29.8 1009 10 16.0934 0 0
3:53 am 03:53 Clear 78 25.6 31 -0.6 18 18 NW 5 7 29.8 1009 10 16.0934 0 0
4:53 am 04:53 Clear 77 25 32 0 19 19 Calm 29.8 1009 10 16.0934 0 0
5:53 am 05:53 Clear 75 23.9 33 0.6 22 22 WNW 5 7 29.83 1010 10 16.0934 0 0
6:53 am 06:53 Sunny 76 24.4 33 0.6 21 21 NW 6 9 29.85 1011 10 16.0934 0 0
7:53 am 07:53 Sunny 80 26.7 37 2.8 21 21 NE 3 6 29.87 1012 10 16.0934 0 0
8:53 am 08:53 Sunny 85 29.4 36 2.2 17 17 E 5 7 29.88 1012 10 16.0934 0 0
9:53 am 09:53 Sunny 90 32.2 35 1.7 14 14 SSE 9 15 29.89 1012 10 16.0934 0 0
10:53 am 10:53 Sunny 96 35.6 42 5.6 15 15 S 15 24 29.88 1012 10 16.0934 0 0
11:53 am 11:53 Sunny 98 36.7 42 5.6 15 15 S 15 24 29.86 1011 10 16.0934 0 0
12:53 pm 12:53 Sunny 98 36.7 42 5.6 15 15 SSW 9 15 29.84 1010 10 16.0934 0 0
1:21 pm 13:21 Sunny 100 37.8 39 3.9 12 12 WSW 13 20 29.68 1005 10 16.0934 0 0
1:53 pm 13:53 Sunny 99 37.2 38 3.3 12 12 S 6 9 29.82 1010 10 16.0934 0 0
2:53 pm 14:53 Sunny 100 37.8 38 3.3 12 12 VRB 7 11 29.8 1009 10 16.0934 0 0
3:53 pm 15:53 Sunny 102 38.9 37 2.8 10 10 SW 18 30 29.78 1008 10 16.0934 0 0
4:53 pm 16:53 Sunny 101 38.3 38 3.3 11 11 WSW 14 22 29.77 1008 10 16.0934 0 0
5:53 pm 17:53 Sunny 100 37.8 36 2.2 11 11 WSW 14 22 29.77 1008 10 16.0934 0 0
6:53 pm 18:53 Sunny 98 36.7 37 2.8 12 12 SW 13 20 29.77 1008 10 16.0934 0 0
7:53 pm 19:53 Clear 96 35.6 37 2.8 13 13 SW 13 20 29.78 1009 10 16.0934 0 0
8:53 pm 20:53 Clear 94 34.4 36 2.2 13 13 SW 9 15 29.8 1009 10 16.0934 0 0
9:53 pm 21:53 Clear 93 33.9 35 1.7 13 13 SW 7 11 29.81 1010 10 16.0934 0 0
10:53 pm 22:53 Clear 90 32.2 35 1.7 14 14 S 9 15 29.83 1010 10 16.0934 0 0
11:53 pm 23:53 Clear 89 31.7 37 2.8 16 16 SSW 7 11 29.83 1010 10 16.0934 0 0

Powered by AerisWeather